User: anonymous   Login
Location: Nantong Television Tower
(32.0188°N, 120.8512°E)
Time: 07:46:25
(UTC+08:00)
Language:

ATLAS 3B CENTAUR R/B - Orbit

View from above orbital plane
View from above orbital plane
View from above satellite
View from above satellite

Ground track
Ground track

The orbit data is extracted from the following two-line orbital elements,

1 28118U 03057B   16338.24765010  .00047360  00000-0  76249-3 0  9992
2 28118  28.1184 277.9337 3167028 149.0520 234.2643  9.13736494271552
Epoch (UTC): 03 December 2016 05:56:36
Eccentricity: 0.3167028
inclination: 28.1184°
perigee height: 226 km
apogee height: 6347 km
right ascension of ascending node: 277.9337°
argument of perigee: 149.0520°
revolutions per day: 9.13736494
mean anomaly at epoch: 234.2643°
orbit number at epoch: 27155

The dashed part of the orbit path shows where the satellite is in the earth's shadow,  

DLR